#timestamp,LO_Frequency,Hit,StdDev 
1633831215.2,286046999.5,N
1633831235.0,286046997.3,N
1633831235.9,286046997.3,N
1633831255.7,286046996.5,N
1633831275.6,286046998.9,N
1633831295.4,286046998.8,N
1633831315.2,286046998.3,N
1633831335.1,286046998.6,N
1633831336.0,286046998.6,N
1633831355.8,286046998.8,N
1633831375.6,286047000.7,N
1633831395.5,286047000.1,N
1633831415.3,286047000.2,N
1633831435.1,286046999.8,N
1633831455.9,286046999.7,N
1633831475.7,286047002.8,N
1633831495.5,286047000.0,N
1633831515.4,286046999.7,N
1633831535.2,286047002.2,N
1633831555.0,286047001.5,N
1633831555.9,286047001.5,N
1633831575.8,286047002.5,N
1633831595.6,286047002.2,N
1633831615.4,286047004.0,N
1633831635.3,286047004.3,N
1633831655.1,286047004.3,N
1633831675.8,286047002.9,N
1633831695.7,286047006.0,N
1633831715.5,286047003.0,N
1633831735.3,286047003.4,N
1633831755.2,286047005.6,N
1633831775.9,286047005.8,N
1633831795.7,286047005.0,N
1633831815.6,286047006.9,N
1633831835.4,286047006.6,N
1633831855.2,286047009.0,Y
1633831875.1,286047007.4,P
1633831876.0,286047007.4,N
1633831895.8,286047007.1,N
1633831915.6,286047006.1,N
1633831935.5,286047008.9,Y
1633831955.3,286047001.5,P
1633831975.1,286047001.4,N
1633831995.9,286047003.9,N
1633832015.7,286047006.0,Y
1633832035.5,286047000.5,P
1633832055.4,286046998.1,N
1633832075.2,286047000.0,N
1633832095.0,286047002.5,N
1633832095.9,286047002.5,N
1633832115.8,286047001.8,N
1633832135.6,286047003.9,N
1633832155.4,286047003.7,N
1633832175.3,286047005.8,Y
1633832195.1,286047003.8,P
1633832215.8,286047004.2,P
1633832235.7,286047003.0,N
1633832255.5,286047005.8,Y
1633832275.3,286047001.9,P
1633832295.2,286047002.6,P
1633832315.0,286047004.0,P
1633832315.9,286047004.0,Y
1633832335.7,286046998.5,P
1633832355.6,286047000.4,N
1633832375.4,286047002.7,N
1633832395.2,286047001.4,N
1633832415.1,286047004.3,N
1633832416.0,286047004.3,N
1633832435.8,286047001.7,N
1633832455.6,286047003.1,N
1633832475.5,286047003.0,N
1633832495.3,286047005.4,Y
1633832515.1,286047004.0,P
1633832535.9,286047004.1,P
1633832555.7,286047003.4,P
1633832575.6,286047006.0,Y
1633832595.4,286047002.5,P
1633832615.2,286047001.6,P
1633832635.0,286047002.1,N
1633832636.0,286047002.1,Y
1633832655.8,286047001.1,P
1633832675.6,286047000.7,N
1633832695.5,286047000.6,N
1633832715.3,286046999.7,N
1633832735.1,286047001.5,N
1633832755.9,286047001.7,N
1633832775.7,286047004.2,Y
1633832795.5,286047001.7,P
1633832815.4,286047004.1,P
1633832835.2,286047003.8,N
1633832855.0,286047005.3,Y
1633832855.9,286047005.3,P
1633832875.8,286047002.2,N
1633832895.6,286047001.3,N
1633832915.4,286047001.3,N
1633832935.3,286047003.9,N
1633832955.1,286047003.2,N
1633832956.0,286047003.2,N
1633832975.8,286047005.9,Y
1633832995.7,286046999.8,P
1633833015.5,286047002.1,N
1633833035.3,286047001.4,N
1633833055.2,286047002.0,N
1633833075.9,286047002.2,N
1633833095.7,286047001.3,N
1633833115.6,286047003.9,Y
1633833135.4,286047001.7,P
1633833155.2,286047002.0,P
1633833175.1,286047004.3,P
1633833176.0,286047004.3,Y
1633833195.8,286047002.7,P
1633833215.6,286047002.1,P
1633833235.5,286046999.8,N
1633833255.3,286047002.6,N
1633833275.1,286047002.1,N
1633833295.9,286046999.7,N
1633833315.7,286047002.0,N
1633833335.5,286047001.9,N
1633833355.4,286047004.2,Y
1633833375.2,286047001.5,P
1633833395.0,286047002.0,P
1633833395.9,286047002.0,P
1633833415.8,286047003.8,Y
1633833435.6,286047002.1,P
1633833455.4,286047002.4,P
1633833475.3,286047001.9,P
1633833495.1,286047001.6,Y
1633833515.8,286047002.8,P
1633833535.7,286047002.5,P
1633833555.5,286047002.4,P
1633833575.3,286047001.7,Y
1633833595.2,286046998.7,P
1633833615.9,286047001.2,N
1633833635.7,286047000.5,N
1633833655.6,286047001.0,N
1633833675.4,286047000.3,N
1633833695.2,286047000.2,N
1633833715.1,286047001.3,N
1633833716.0,286047001.3,N
1633833735.8,286047001.8,N
1633833755.6,286047001.9,N
1633833775.5,286047003.9,Y
1633833795.3,286047001.3,P
1633833815.1,286047001.5,P
1633833835.9,286047001.4,P
1633833855.7,286047003.4,Y
1633833875.5,286047003.7,P
1633833895.4,286047003.7,P
1633833915.2,286047004.7,P
1633833935.0,286047004.5,Y
1633833935.9,286047004.5,P
1633833955.8,286047002.2,P
1633833975.6,286047001.9,N
1633833995.4,286047002.4,N
1633834015.3,286047001.4,N
1633834035.1,286047004.2,Y
1633834055.8,286047000.7,P
1633834075.7,286046999.9,N
1633834095.5,286047002.0,N
1633834115.3,286047002.1,N
1633834135.2,286047001.7,N
1633834155.9,286047002.3,N
1633834175.7,286047002.1,N
1633834195.6,286047001.3,N
1633834215.4,286047003.7,Y
1633834235.2,286047001.9,P
1633834255.1,286047001.3,P
1633834256.0,286047001.3,P
1633834275.8,286047001.7,Y
1633834295.6,286047002.7,P
1633834315.5,286047001.8,P
1633834335.3,286047003.9,P
1633834355.1,286047002.2,N
1633834375.9,286047001.5,N
1633834395.7,286047003.6,Y
1633834415.5,286047004.4,P
1633834435.4,286047002.0,N
1633834455.2,286047001.7,N
1633834475.0,286047004.0,Y
1633834475.9,286047004.0,P
1633834495.8,286046999.8,N
1633834515.6,286047000.2,N
1633834535.4,286047002.3,N
1633834555.3,286047002.0,N
1633834575.1,286047001.3,N
1633834595.8,286047003.7,N
1633834615.7,286047004.0,N
1633834635.5,286047003.1,N
1633834655.3,286047003.8,N
1633834675.2,286047003.6,N
1633834695.0,286047005.6,Y
1633834695.9,286047005.6,P
1633834715.7,286047002.1,N
1633834735.6,286047000.4,N
1633834755.4,286047002.4,N
1633834775.2,286047002.1,N
1633834795.1,286047002.6,N
1633834796.0,286047002.6,N
